TimeCST,TemperatureF,Dew PointF,Humidity,Sea Level PressureIn,VisibilityMPH,Wind Direction,Wind SpeedMPH,Gust SpeedMPH,PrecipitationIn,Events,Conditions,WindDirDegrees,DateUTC
12:13 AM,9.5,7.3,91,30.03,7.0,West,3.5,-,N/A,,Overcast,260,2012-12-29 06:13:00
12:33 AM,8.8,6.6,91,30.03,7.0,West,4.6,-,N/A,Snow,Light Snow,260,2012-12-29 06:33:00
12:53 AM,7.9,5.5,90,30.03,7.0,West,4.6,-,N/A,,Overcast,270,2012-12-29 06:53:00
1:13 AM,7.5,5.2,90,30.04,7.0,West,5.8,-,N/A,,Overcast,280,2012-12-29 07:13:00
1:33 AM,6.3,3.6,89,30.04,5.0,West,5.8,-,N/A,Snow,Light Snow,270,2012-12-29 07:33:00
1:53 AM,6.8,4.5,90,30.03,1.5,West,4.6,-,N/A,Snow,Light Snow,260,2012-12-29 07:53:00
2:13 AM,6.6,4.1,89,30.03,1.0,West,3.5,-,N/A,Snow,Light Snow,260,2012-12-29 08:13:00
2:33 AM,6.8,4.1,89,30.04,1.2,West,4.6,-,N/A,Snow,Light Snow,270,2012-12-29 08:33:00
2:53 AM,7.5,5.0,89,30.04,2.5,West,3.5,-,N/A,Snow,Light Snow,270,2012-12-29 08:53:00
3:13 AM,7.7,5.4,90,30.04,2.0,West,3.5,-,N/A,Snow,Light Snow,270,2012-12-29 09:13:00
3:33 AM,8.1,5.7,90,30.05,1.5,West,6.9,-,N/A,Snow,Light Snow,270,2012-12-29 09:33:00
3:53 AM,8.2,5.9,90,30.04,1.5,West,3.5,-,N/A,Snow,Light Snow,270,2012-12-29 09:53:00
4:13 AM,8.6,6.4,91,30.04,2.0,West,3.5,-,N/A,Snow,Light Snow,280,2012-12-29 10:13:00
4:33 AM,8.6,6.3,90,30.04,1.2,West,3.5,-,N/A,Snow,Light Snow,270,2012-12-29 10:33:00
4:53 AM,8.6,6.4,91,30.04,1.8,Calm,Calm,-,N/A,Snow,Light Snow,0,2012-12-29 10:53:00
5:14 AM,9.1,6.8,90,30.04,2.5,WSW,3.5,-,N/A,Snow,Light Snow,250,2012-12-29 11:14:00
5:33 AM,9.3,7.2,91,30.04,3.0,Calm,Calm,-,N/A,Snow,Light Snow,0,2012-12-29 11:33:00
5:53 AM,9.5,7.5,92,30.04,3.0,WSW,4.6,-,N/A,Snow,Light Snow,250,2012-12-29 11:53:00
6:14 AM,10.0,7.7,90,30.04,3.0,Calm,Calm,-,N/A,Snow,Light Snow,0,2012-12-29 12:14:00
6:33 AM,10.2,8.1,91,30.04,5.0,WSW,3.5,-,N/A,Snow,Light Snow,250,2012-12-29 12:33:00
7:14 AM,10.8,8.6,91,30.04,4.0,WSW,3.5,-,N/A,Snow,Light Snow,250,2012-12-29 13:14:00
7:33 AM,10.8,8.6,91,30.05,5.0,WSW,4.6,-,N/A,Snow,Light Snow,240,2012-12-29 13:33:00
7:53 AM,10.9,8.6,90,30.05,4.0,WSW,3.5,-,N/A,Snow,Light Snow,240,2012-12-29 13:53:00
8:14 AM,11.1,8.8,90,30.05,2.5,Calm,Calm,-,N/A,Snow,Light Snow,0,2012-12-29 14:14:00
8:33 AM,11.3,9.1,91,30.05,1.8,Calm,Calm,-,N/A,Snow,Light Snow,0,2012-12-29 14:33:00
8:53 AM,11.1,8.6,90,30.05,1.2,SW,3.5,-,N/A,Snow,Light Snow,230,2012-12-29 14:53:00
9:13 AM,10.9,8.6,90,30.06,1.2,WSW,5.8,-,N/A,Snow,Light Snow,240,2012-12-29 15:13:00
9:33 AM,10.6,8.4,91,30.06,1.5,WSW,3.5,-,N/A,Snow,Light Snow,250,2012-12-29 15:33:00
9:53 AM,10.4,8.2,91,30.06,1.8,WSW,4.6,-,N/A,Snow,Light Snow,250,2012-12-29 15:53:00
10:13 AM,10.4,8.1,90,30.06,1.8,SW,3.5,-,N/A,Snow,Light Snow,230,2012-12-29 16:13:00
10:34 AM,9.3,6.8,89,30.07,5.0,WSW,3.5,-,N/A,Snow,Light Snow,240,2012-12-29 16:34:00
10:53 AM,9.5,7.2,90,30.08,7.0,West,3.5,-,N/A,,Mostly Cloudy,260,2012-12-29 16:53:00
11:13 AM,10.2,7.9,90,30.06,7.0,Calm,Calm,-,N/A,,Mostly Cloudy,0,2012-12-29 17:13:00
11:34 AM,10.2,7.7,90,30.06,5.0,SW,3.5,-,N/A,Snow,Light Snow,230,2012-12-29 17:34:00
11:53 AM,10.4,8.1,90,30.06,7.0,SW,3.5,-,N/A,Snow,Light Snow,230,2012-12-29 17:53:00
12:13 PM,10.9,8.6,90,30.06,7.0,WSW,3.5,-,N/A,,Mostly Cloudy,240,2012-12-29 18:13:00
12:53 PM,12.0,9.9,91,30.04,7.0,West,5.8,-,N/A,,Overcast,270,2012-12-29 18:53:00
1:13 PM,12.2,10.0,91,30.04,5.0,WSW,5.8,-,N/A,Snow,Light Snow,240,2012-12-29 19:13:00
1:33 PM,12.2,10.0,91,30.04,3.0,West,6.9,-,N/A,Snow,Light Snow,270,2012-12-29 19:33:00
1:53 PM,12.2,10.0,91,30.04,3.0,WSW,6.9,-,N/A,Snow,Light Snow,250,2012-12-29 19:53:00
2:13 PM,11.7,9.5,91,30.04,4.0,West,6.9,-,N/A,Snow,Light Snow,260,2012-12-29 20:13:00
2:33 PM,10.4,8.1,90,30.04,7.0,West,6.9,-,N/A,Snow,Light Snow,260,2012-12-29 20:33:00
2:53 PM,10.9,8.4,90,30.06,10.0,WNW,8.1,-,N/A,,Clear,290,2012-12-29 20:53:00
3:13 PM,10.6,7.0,85,30.06,10.0,West,5.8,-,N/A,,Clear,280,2012-12-29 21:13:00
3:33 PM,10.2,5.2,80,30.06,10.0,West,4.6,-,N/A,,Clear,280,2012-12-29 21:33:00
3:54 PM,9.0,3.7,79,30.06,10.0,WNW,3.5,-,N/A,,Clear,290,2012-12-29 21:54:00
4:13 PM,7.9,3.0,81,30.07,10.0,West,3.5,-,N/A,,Clear,280,2012-12-29 22:13:00
4:33 PM,3.6,-0.6,83,30.06,10.0,WSW,4.6,-,N/A,,Clear,250,2012-12-29 22:33:00
5:13 PM,-0.8,-3.1,90,30.07,7.0,WSW,5.8,-,N/A,,Clear,250,2012-12-29 23:13:00
5:33 PM,-3.5,-6.0,89,30.08,7.0,WSW,5.8,-,N/A,,Clear,250,2012-12-29 23:33:00
5:53 PM,-2.2,-4.5,90,30.08,7.0,WSW,5.8,-,N/A,,Clear,250,2012-12-29 23:53:00
6:13 PM,-1.8,-4.7,88,30.09,7.0,WSW,5.8,-,N/A,,Clear,250,2012-12-30 00:13:00
6:33 PM,-0.4,-3.1,88,30.09,7.0,WSW,5.8,-,N/A,,Clear,250,2012-12-30 00:33:00
6:53 PM,-3.1,-6.0,87,30.11,7.0,WSW,4.6,-,N/A,,Clear,250,2012-12-30 00:53:00
7:13 PM,-2.4,-5.1,88,30.10,7.0,WSW,5.8,-,N/A,,Clear,250,2012-12-30 01:13:00
7:33 PM,-3.3,-6.3,87,30.10,7.0,West,4.6,-,N/A,,Clear,260,2012-12-30 01:33:00
7:53 PM,-1.3,-4.0,88,30.10,7.0,WSW,4.6,-,N/A,,Clear,250,2012-12-30 01:53:00
8:53 PM,-5.8,-9.0,86,30.11,7.0,West,4.6,-,N/A,,Clear,270,2012-12-30 02:53:00
9:13 PM,-3.6,-6.7,87,30.11,7.0,Calm,Calm,-,N/A,,Clear,0,2012-12-30 03:13:00
9:33 PM,-6.0,-9.4,85,30.12,7.0,WSW,3.5,-,N/A,,Clear,250,2012-12-30 03:33:00
9:53 PM,-3.8,-6.5,88,30.13,7.0,WSW,4.6,-,N/A,,Clear,240,2012-12-30 03:53:00
10:13 PM,-2.6,-5.4,87,30.14,7.0,WSW,3.5,-,N/A,,Clear,240,2012-12-30 04:13:00
10:33 PM,-1.7,-4.7,87,30.13,7.0,Calm,Calm,-,N/A,,Clear,0,2012-12-30 04:33:00
10:53 PM,-3.5,-6.5,87,30.13,7.0,Calm,Calm,-,N/A,,Clear,0,2012-12-30 04:53:00
11:13 PM,-4.7,-8.1,85,30.13,7.0,Calm,Calm,-,N/A,,Clear,0,2012-12-30 05:13:00
11:33 PM,-5.1,-8.5,85,30.12,7.0,Calm,Calm,-,N/A,,Clear,0,2012-12-30 05:33:00
11:53 PM,-5.6,-9.0,85,30.13,7.0,Calm,Calm,-,N/A,,Clear,0,2012-12-30 05:53:00